Total_Precipitation_Accumulation
0.05 0.09 0.24 0.32 0.35 0.30 0.27 0.24 0.19 0.17 0.16 0.17 0.18 0.18 0.18 0.18 0.17 0.15 0.16 0.20 0.30 0.37 0.42 0.44 0.51 0.53 0.51 0.43 0.31 0.19 0.13 0.12 0.09 0.06 0.07 0.08 0.12 0.15 0.14 0.15 0.18 0.23 0.27
0.05 0.10 0.24 0.34 0.36 0.30 0.26 0.24 0.22 0.21 0.18 0.17 0.21 0.22 0.21 0.20 0.23 0.25 0.24 0.27 0.33 0.40 0.45 0.51 0.54 0.53 0.50 0.37 0.23 0.13 0.06 0.05 0.03 0.01 0.01 0.03 0.06 0.11 0.12 0.11 0.12 0.23 0.28
0.08 0.13 0.24 0.35 0.36 0.32 0.28 0.23 0.20 0.21 0.22 0.23 0.25 0.26 0.26 0.24 0.26 0.33 0.34 0.34 0.35 0.37 0.43 0.49 0.46 0.41 0.38 0.26 0.15 0.08 0.05 0.04 0.02 0.01 0.03 0.05 0.08 0.14 0.14 0.12 0.17 0.23 0.28
0.13 0.14 0.23 0.35 0.38 0.34 0.30 0.24 0.23 0.24 0.26 0.29 0.31 0.32 0.34 0.32 0.33 0.36 0.39 0.37 0.34 0.34 0.38 0.36 0.29 0.24 0.21 0.16 0.12 0.07 0.05 0.04 0.03 0.03 0.07 0.09 0.12 0.21 0.21 0.19 0.19 0.19 0.22
0.19 0.19 0.26 0.37 0.43 0.41 0.34 0.28 0.25 0.26 0.29 0.31 0.35 0.41 0.43 0.43 0.43 0.41 0.39 0.36 0.31 0.28 0.25 0.19 0.16 0.15 0.14 0.12 0.10 0.07 0.04 0.03 0.02 0.04 0.06 0.10 0.16 0.30 0.26 0.21 0.21 0.22 0.21
0.22 0.27 0.35 0.43 0.49 0.50 0.43 0.36 0.32 0.32 0.33 0.34 0.36 0.41 0.48 0.54 0.54 0.48 0.39 0.29 0.24 0.21 0.17 0.15 0.13 0.13 0.11 0.09 0.07 0.06 0.05 0.03 0.02 0.03 0.05 0.09 0.15 0.30 0.25 0.20 0.20 0.21 0.21
0.23 0.31 0.42 0.52 0.54 0.55 0.53 0.48 0.43 0.41 0.39 0.38 0.38 0.43 0.50 0.52 0.49 0.45 0.34 0.25 0.20 0.18 0.17 0.14 0.13 0.13 0.12 0.09 0.08 0.08 0.06 0.03 0.02 0.04 0.06 0.09 0.17 0.30 0.24 0.19 0.17 0.17 0.18
0.24 0.37 0.49 0.62 0.61 0.58 0.56 0.55 0.53 0.50 0.48 0.45 0.44 0.47 0.50 0.51 0.47 0.41 0.33 0.26 0.21 0.20 0.19 0.18 0.15 0.13 0.14 0.12 0.11 0.09 0.08 0.04 0.03 0.04 0.06 0.07 0.13 0.20 0.16 0.13 0.13 0.14 0.14
0.35 0.46 0.57 0.71 0.73 0.69 0.65 0.61 0.56 0.55 0.55 0.55 0.55 0.55 0.49 0.44 0.42 0.39 0.34 0.28 0.24 0.22 0.21 0.19 0.18 0.15 0.14 0.14 0.14 0.11 0.07 0.04 0.03 0.03 0.03 0.04 0.07 0.12 0.13 0.15 0.15 0.16 0.16
0.57 0.62 0.71 0.80 0.79 0.73 0.71 0.68 0.63 0.58 0.57 0.59 0.60 0.55 0.48 0.43 0.41 0.38 0.32 0.28 0.23 0.21 0.21 0.19 0.18 0.16 0.15 0.14 0.12 0.10 0.08 0.06 0.04 0.03 0.02 0.02 0.05 0.09 0.12 0.16 0.15 0.16 0.17
0.86 0.83 0.86 0.91 0.90 0.83 0.77 0.73 0.71 0.64 0.60 0.59 0.57 0.51 0.49 0.50 0.45 0.37 0.27 0.22 0.21 0.20 0.20 0.20 0.18 0.16 0.13 0.11 0.10 0.11 0.11 0.09 0.07 0.06 0.05 0.04 0.06 0.11 0.14 0.17 0.17 0.17 0.17
1.01 0.98 0.95 0.95 0.92 0.93 0.87 0.81 0.82 0.74 0.64 0.59 0.51 0.51 0.53 0.52 0.46 0.35 0.30 0.25 0.23 0.21 0.21 0.24 0.24 0.20 0.15 0.10 0.09 0.10 0.11 0.10 0.10 0.09 0.07 0.07 0.09 0.13 0.16 0.18 0.16 0.15 0.15
1.08 1.14 1.12 1.06 0.98 0.94 0.96 0.88 0.84 0.79 0.71 0.63 0.53 0.53 0.56 0.60 0.56 0.51 0.42 0.37 0.35 0.27 0.27 0.26 0.28 0.20 0.14 0.11 0.10 0.09 0.09 0.11 0.11 0.10 0.07 0.06 0.07 0.12 0.15 0.18 0.17 0.16 0.16
1.29 1.23 1.27 1.23 1.13 0.99 0.95 0.92 0.89 0.84 0.77 0.66 0.54 0.51 0.52 0.53 0.53 0.48 0.40 0.35 0.34 0.28 0.27 0.27 0.23 0.18 0.15 0.12 0.10 0.10 0.09 0.10 0.09 0.10 0.09 0.07 0.06 0.09 0.14 0.18 0.18 0.17 0.16
1.49 1.41 1.43 1.36 1.20 1.09 1.01 0.93 0.89 0.90 0.85 0.74 0.67 0.59 0.51 0.43 0.39 0.41 0.39 0.38 0.35 0.30 0.26 0.27 0.23 0.21 0.19 0.17 0.14 0.11 0.10 0.10 0.09 0.09 0.09 0.08 0.07 0.08 0.12 0.17 0.19 0.20 0.22
1.72 1.67 1.67 1.58 1.40 1.21 1.09 0.96 0.88 0.91 0.93 0.91 0.76 0.64 0.63 0.54 0.45 0.42 0.42 0.41 0.37 0.34 0.32 0.31 0.27 0.27 0.25 0.22 0.17 0.14 0.11 0.11 0.10 0.10 0.09 0.09 0.08 0.07 0.09 0.14 0.19 0.24 0.29
1.75 1.82 1.85 1.80 1.69 1.46 1.25 1.13 0.98 0.97 0.99 0.97 0.86 0.73 0.69 0.64 0.56 0.52 0.49 0.44 0.37 0.35 0.37 0.40 0.40 0.37 0.32 0.28 0.21 0.18 0.16 0.14 0.12 0.11 0.11 0.10 0.09 0.08 0.08 0.11 0.16 0.22 0.28
1.85 1.84 1.97 2.00 1.92 1.77 1.55 1.36 1.18 1.06 1.03 0.96 0.88 0.80 0.73 0.69 0.62 0.60 0.55 0.50 0.45 0.43 0.40 0.41 0.44 0.43 0.39 0.34 0.29 0.26 0.23 0.19 0.15 0.15 0.14 0.11 0.10 0.09 0.08 0.09 0.13 0.16 0.21
1.95 1.97 2.04 2.15 2.16 2.14 2.03 1.86 1.58 1.34 1.23 1.15 1.02 0.89 0.81 0.75 0.67 0.63 0.60 0.56 0.55 0.53 0.45 0.39 0.39 0.40 0.40 0.40 0.40 0.35 0.31 0.27 0.24 0.23 0.21 0.18 0.15 0.13 0.11 0.09 0.10 0.12 0.15
2.16 2.25 2.18 2.28 2.42 2.50 2.54 2.39 2.15 1.79 1.51 1.34 1.18 1.06 0.96 0.88 0.79 0.71 0.67 0.62 0.62 0.65 0.60 0.51 0.44 0.43 0.41 0.40 0.43 0.43 0.41 0.36 0.31 0.28 0.25 0.22 0.20 0.17 0.15 0.15 0.14 0.13 0.13
2.22 2.41 2.40 2.34 2.49 2.71 2.58 2.35 2.12 1.87 1.69 1.52 1.36 1.23 1.14 1.05 0.96 0.85 0.75 0.73 0.71 0.68 0.66 0.64 0.62 0.60 0.57 0.58 0.60 0.54 0.46 0.43 0.39 0.32 0.30 0.27 0.24 0.22 0.20 0.19 0.19 0.19 0.18
2.03 2.31 2.34 2.40 2.53 2.69 2.59 2.46 2.38 2.30 2.07 1.87 1.73 1.46 1.26 1.15 1.06 1.00 0.90 0.81 0.79 0.78 0.75 0.74 0.75 0.73 0.71 0.74 0.79 0.81 0.68 0.54 0.41 0.34 0.33 0.32 0.31 0.31 0.31 0.29 0.27 0.26 0.24
1.58 1.97 2.14 2.20 2.37 2.49 2.65 2.91 2.89 2.77 2.42 1.96 1.67 1.56 1.46 1.42 1.32 1.17 1.15 1.07 0.93 0.87 0.80 0.78 0.76 0.77 0.77 0.78 0.79 0.91 0.86 0.67 0.51 0.40 0.34 0.31 0.32 0.35 0.34 0.34 0.32 0.31 0.30
1.25 1.59 1.94 2.14 2.27 2.31 2.39 2.64 2.74 2.59 2.24 1.88 1.65 1.65 1.70 1.64 1.60 1.53 1.41 1.36 1.23 1.07 0.95 0.92 0.89 0.88 0.91 0.89 0.86 0.82 0.79 0.71 0.70 0.58 0.42 0.37 0.36 0.36 0.37 0.36 0.32 0.31 0.33
1.05 1.37 1.69 1.93 2.16 2.20 2.14 2.24 2.47 2.55 2.41 2.23 2.04 1.90 1.82 1.76 1.65 1.63 1.59 1.52 1.42 1.32 1.22 1.17 1.11 1.07 1.07 1.03 0.97 0.91 0.89 0.79 0.75 0.77 0.58 0.41 0.42 0.42 0.45 0.46 0.44 0.41 0.41
0.89 1.05 1.35 1.63 1.95 2.14 2.09 2.12 2.21 2.27 2.34 2.25 2.09 2.05 1.94 1.91 1.79 1.64 1.60 1.59 1.53 1.50 1.45 1.43 1.40 1.30 1.23 1.18 1.14 1.07 1.07 1.02 0.88 0.90 0.84 0.63 0.57 0.51 0.51 0.54 0.56 0.57 0.57